Location: Unspecified
(0.0000°N, 0.0000°E)
Time: 15:34:52
(UTC+00:00)

Hubble Space Telescope - Pass Details

Date: 10 October 2024
Orbit: 503 x 507 km, 28.5° (Epoch: 13 October)

Event Time Altitude Azimuth Distance (km) Brightness Sun altitude
Rises 18:31:29 0° 251° (WSW) 2,590 6.2 -11.1°
Reaches altitude 10° 18:33:48 10° 259° (WSW) 1,705 4.9 -11.7°
Maximum altitude 18:37:31 41° 330° (NNW) 736 1.6 -12.6°
Enters shadow 18:40:45 13° 38° (NE) 1,519 2.7 -13.4°
